FW3276 Weather Reports


time (UTC)temp
F
wind
direction
speed
knots
gust
knots
rain 1hr
in
rain 24hr
in
rain mn
in
humidity
%
barometer
mb
20260507000036 52 12 4.3 9.6 0.00 0.36 0.36 55 1007.9
20260506234531 53 47 4.3 11.3 0.00 0.36 0.36 54 1007.5
20260506233028 54 340 5.2 13.0 0.00 0.36 0.36 53 1007.2
20260506231523 57 319 3.5 10.4 0.00 0.36 0.36 52 1007.0
20260506230022 60 263 1.7 6.1 0.00 0.36 0.36 55 1006.0
20260506224522 60 245 1.7 7.0 0.00 0.36 0.36 55 1005.8
20260506223021 61 249 3.5 12.2 0.00 0.36 0.36 54 1005.5
20260506221521 61 273 3.5 9.6 0.00 0.36 0.36 54 1005.5
20260506220031 61 263 3.5 8.7 0.00 0.36 0.36 55 1005.1
20260506214521 61 240 2.6 9.6 0.00 0.36 0.36 55 1005.0
20260506213023 60 300 5.2 10.4 0.00 0.36 0.36 56 1004.9
20260506211518 60 250 0.0 3.5 0.00 0.36 0.36 60 1004.5
20260506210019 60 230 1.7 3.5 0.00 0.36 0.36 60 1004.6
20260506204517 59 244 0.9 4.3 0.00 0.36 0.36 60 1004.5
20260506203020 59 227 2.6 7.8 0.00 0.36 0.36 60 1004.6
20260506201516 59 240 1.7 6.1 0.00 0.36 0.36 60 1004.4
20260506200020 59 247 2.6 7.0 0.00 0.36 0.36 60 1004.4
20260506194515 59 249 0.9 7.8 0.00 0.36 0.36 60 1004.7
20260506193013 59 252 1.7 6.1 0.00 0.36 0.36 60 1004.7
20260506191513 59 218 0.9 7.8 0.00 0.36 0.36 60 1004.8
20260506190021 59 266 4.3 8.7 0.02 0.36 0.36 60 1004.7
20260506184516 59 281 2.6 9.6 0.02 0.36 0.36 60 1004.7
20260506183009 58 245 1.7 6.1 0.03 0.36 0.36 60 1005.0
20260506181512 58 213 0.9 3.5 0.03 0.36 0.36 60 1005.3
20260506180009 58 273 0.0 5.2 0.02 0.34 0.34 59 1005.4
20260506174507 58 214 2.6 6.1 0.02 0.34 0.34 59 1005.5
20260506173005 58 265 0.9 5.2 0.02 0.33 0.33 58 1005.3
20260506171505 57 240 2.6 8.7 0.03 0.33 0.33 58 1005.6
20260506170003 57 264 1.7 6.1 0.02 0.32 0.32 58 1005.5
20260506164504 57 254 1.7 10.4 0.04 0.32 0.32 58 1005.2
20260506163007 57 232 3.5 8.7 0.04 0.30 0.30 58 1005.4
20260506161600 58 250 2.6 9.6 0.09 0.30 0.30 58 1005.3
20260506154558 57 236 2.6 10.4 0.15 0.28 0.28 57 1005.5
20260506153058 57 239 2.6 6.1 0.13 0.26 0.26 56 1005.7
20260506151555 58 155 3.5 7.8 0.09 0.21 0.21 56 1006.3
20260506150057 58 287 0.9 7.0 0.05 0.15 0.15 56 1005.8
20260506144604 58 179 3.5 7.8 0.05 0.14 0.14 56 1005.6
20260506143052 58 158 0.0 7.0 0.05 0.13 0.13 55 1005.6
20260506141548 58 233 2.6 7.0 0.06 0.12 0.12 52 1005.9
20260506140048 58 177 0.9 3.5 0.06 0.10 0.10 52 1006.1
20260506134548 58 216 0.0 2.6 0.06 0.09 0.09 51 1006.2
20260506133051 58 215 0.9 4.3 0.06 0.08 0.08 51 1006.4
20260506131546 58 224 0.0 4.3 0.05 0.06 0.06 51 1006.5
20260506130046 58 210 0.9 4.3 0.04 0.04 0.04 52 1006.7
20260506124543 59 246 0.9 5.2 0.03 0.03 0.03 54 1006.6
20260506123041 59 248 0.9 7.0 0.02 0.02 0.02 55 1006.4
20260506121539 60 183 0.9 7.0 0.01 0.01 0.01 58 1006.5
20260506120038 60 190 0.0 4.3 0.00 0.00 0.00 57 1006.2
20260506114536 60 238 1.7 9.6 0.00 0.00 0.00 58 1006.1
20260506113035 60 165 0.9 4.3 0.00 0.00 0.00 58 1006.1
20260506111533 60 200 1.7 6.1 0.00 0.00 0.00 57 1006.4
20260506110134 61 148 2.6 6.1 0.00 0.00 0.00 56 1006.1
20260506104530 61 210 0.9 6.1 0.00 0.00 0.00 55 1005.9
20260506103030 61 188 0.9 5.2 0.00 0.00 0.00 55 1005.5
20260506101527 61 186 0.0 7.8 0.00 0.00 0.00 55 1005.4
20260506100025 61 143 0.9 5.2 0.00 0.00 0.00 54 1005.5
20260506094524 61 169 0.9 6.1 0.00 0.00 0.00 53 1005.5
20260506093030 61 175 1.7 5.2 0.00 0.00 0.00 52 1005.8
20260506091526 61 205 0.0 3.5 0.00 0.00 0.00 51 1005.7
20260506090023 61 225 0.0 4.3 0.00 0.00 0.00 50 1005.9
20260506084532 61 227 0.0 2.6 0.00 0.00 0.00 49 1005.7
20260506083017 62 242 0.0 2.6 0.00 0.00 0.00 48 1005.9
20260506081517 62 212 0.0 3.5 0.00 0.00 0.00 47 1006.0
20260506073011 63 248 0.0 3.5 0.00 0.00 0.00 45 1006.2
20260506071509 63 231 1.7 6.1 0.00 0.00 0.00 45 1006.3
20260506061503 63 231 2.6 7.0 0.00 0.00 0.00 42 1006.8
20260506050104 65 290 1.7 9.6 0.00 0.00 0.00 39 1007.5
20260506044554 65 259 0.0 7.0 0.00 0.00 0.00 38 1007.5
20260506043056 65 308 1.7 7.8 0.00 0.00 0.00 38 1007.4
20260506041556 65 244 3.5 9.6 0.00 0.00 0.00 38 1007.4
20260506040050 65 219 1.7 7.8 0.00 0.00 0.00 37 1007.5
20260506034553 64 252 1.7 6.1 0.00 0.00 0.00 37 1007.6
20260506033101 65 199 0.9 4.3 0.00 0.00 0.00 37 1007.5
20260506031552 66 232 0.0 5.2 0.00 0.00 0.00 37 1007.5
20260506030058 66 225 0.9 2.6 0.00 0.00 0.00 37 1007.5
20260506024602 67 213 0.0 3.5 0.00 0.00 0.00 35 1007.5
20260506023047 68 218 0.0 6.1 0.00 0.00 0.00 34 1007.6
20260506021555 68 225 0.9 7.8 0.00 0.00 0.00 33 1007.6
20260506020046 68 237 1.7 9.6 0.00 0.00 0.00 35 1007.6
20260506014546 69 184 2.6 7.8 0.00 0.00 0.00 36 1007.4
20260506013048 69 201 0.0 2.6 0.00 0.00 0.00 35 1007.3
20260506011609 70 172 2.6 7.0 0.00 0.00 0.00 34 1007.2
20260506010044 71 203 4.3 9.6 0.00 0.00 0.00 33 1006.9
20260506004546 71 171 4.3 9.6 0.00 0.00 0.00 33 1006.6
20260506003043 71 217 2.6 8.7 0.00 0.00 0.00 32 1006.6
20260506001543 72 176 1.7 9.6 0.00 0.00 0.00 31 1006.5